Time,TemperatureF,DewpointF,PressureIn,WindDirection,WindDirectionDegrees,WindSpeedMPH,WindSpeedGustMPH,Humidity,HourlyPrecipIn,Conditions,Clouds,dailyrainin,SoftwareType,DateUTC
2013-07-12 00:02:00,62.8,58.9,30.01,SE,146,0.0,0.0,87,0.00,,,0.00,Wunderground v.1.15,2013-07-12 05:02:00,
2013-07-12 00:08:00,62.7,59.1,30.01,SE,146,0.0,0.0,88,0.00,,,0.00,Wunderground v.1.15,2013-07-12 05:08:00,
2013-07-12 00:14:00,62.5,58.9,30.02,SE,146,0.0,0.0,88,0.00,,,0.00,Wunderground v.1.15,2013-07-12 05:14:00,
2013-07-12 00:20:00,62.4,59.1,30.01,SE,146,0.0,0.0,89,0.00,,,0.00,Wunderground v.1.15,2013-07-12 05:20:00,
2013-07-12 00:25:00,62.2,58.9,30.01,SE,146,0.0,0.0,89,0.00,,,0.00,Wunderground v.1.15,2013-07-12 05:25:00,
2013-07-12 00:31:00,61.9,58.3,30.01,SE,146,0.0,0.0,88,0.00,,,0.00,Wunderground v.1.15,2013-07-12 05:31:00,
2013-07-12 00:37:00,61.8,58.5,30.02,SE,146,0.0,0.0,89,0.00,,,0.00,Wunderground v.1.15,2013-07-12 05:37:00,
2013-07-12 00:42:00,61.8,58.5,30.02,SE,146,0.0,0.0,89,0.00,,,0.00,Wunderground v.1.15,2013-07-12 05:42:00,
2013-07-12 00:48:00,61.6,58.3,30.02,SE,146,0.0,0.0,89,0.00,,,0.00,Wunderground v.1.15,2013-07-12 05:48:00,
2013-07-12 00:54:00,61.5,58.5,30.02,SE,146,0.0,0.0,90,0.00,,,0.00,Wunderground v.1.15,2013-07-12 05:54:00,
2013-07-12 00:59:00,61.3,58.3,30.01,SE,146,0.0,0.0,90,0.00,,,0.00,Wunderground v.1.15,2013-07-12 05:59:00,
2013-07-12 01:05:00,61.4,58.4,30.01,SE,146,0.0,0.0,90,0.00,,,0.00,Wunderground v.1.15,2013-07-12 06:05:00,
2013-07-12 01:10:00,61.6,58.6,30.01,SE,146,0.0,0.0,90,0.00,,,0.00,Wunderground v.1.15,2013-07-12 06:10:00,
2013-07-12 01:16:00,61.6,58.6,30.01,SE,146,0.0,0.0,90,0.00,,,0.00,Wunderground v.1.15,2013-07-12 06:16:00,
2013-07-12 01:22:00,61.4,58.4,30.01,SE,146,0.0,0.0,90,0.00,,,0.00,Wunderground v.1.15,2013-07-12 06:22:00,
2013-07-12 01:27:00,61.2,58.2,30.00,SE,146,0.0,0.0,90,0.00,,,0.00,Wunderground v.1.15,2013-07-12 06:27:00,
2013-07-12 01:33:00,61.1,58.1,30.00,SE,146,0.0,0.0,90,0.00,,,0.00,Wunderground v.1.15,2013-07-12 06:33:00,
2013-07-12 01:39:00,61.1,58.1,30.01,SE,146,0.0,0.0,90,0.00,,,0.00,Wunderground v.1.15,2013-07-12 06:39:00,
2013-07-12 01:45:00,61.0,58.4,30.01,SE,146,0.0,0.0,91,0.00,,,0.00,Wunderground v.1.15,2013-07-12 06:45:00,
2013-07-12 01:51:00,60.8,58.2,30.01,SE,146,0.0,0.0,91,0.00,,,0.00,Wunderground v.1.15,2013-07-12 06:51:00,
2013-07-12 01:57:00,60.5,57.9,30.01,SE,146,0.0,0.0,91,0.00,,,0.00,Wunderground v.1.15,2013-07-12 06:57:00,
2013-07-12 02:02:00,60.3,57.7,30.01,SE,146,0.0,0.0,91,0.00,,,0.00,Wunderground v.1.15,2013-07-12 07:02:00,
2013-07-12 02:08:00,60.2,57.9,30.01,SE,146,0.0,0.0,92,0.00,,,0.00,Wunderground v.1.15,2013-07-12 07:08:00,
2013-07-12 02:14:00,60.1,57.5,30.01,SE,146,0.0,0.0,91,0.00,,,0.00,Wunderground v.1.15,2013-07-12 07:14:00,
2013-07-12 02:20:00,59.9,57.6,30.01,SE,146,0.0,0.0,92,0.00,,,0.00,Wunderground v.1.15,2013-07-12 07:20:00,
2013-07-12 02:26:00,59.9,57.6,30.01,SE,146,0.0,0.0,92,0.00,,,0.00,Wunderground v.1.15,2013-07-12 07:26:00,
2013-07-12 02:32:00,59.8,57.5,30.01,SE,144,0.0,0.0,92,0.00,,,0.00,Wunderground v.1.15,2013-07-12 07:32:00,
2013-07-12 02:37:00,59.9,57.6,30.01,SE,144,0.0,0.0,92,0.00,,,0.00,Wunderground v.1.15,2013-07-12 07:37:00,
2013-07-12 02:43:00,59.8,57.5,30.01,SE,144,0.0,0.0,92,0.00,,,0.00,Wunderground v.1.15,2013-07-12 07:43:00,
2013-07-12 02:49:00,59.7,57.4,30.01,SE,144,0.0,0.0,92,0.00,,,0.00,Wunderground v.1.15,2013-07-12 07:49:00,
2013-07-12 02:55:00,59.6,57.3,30.02,SE,144,0.0,0.0,92,0.00,,,0.00,Wunderground v.1.15,2013-07-12 07:55:00,
2013-07-12 03:01:00,59.5,57.5,30.02,SE,144,0.0,0.0,93,0.00,,,0.00,Wunderground v.1.15,2013-07-12 08:01:00,
2013-07-12 03:07:00,59.5,57.5,30.02,SE,144,0.0,0.0,93,0.00,,,0.00,Wunderground v.1.15,2013-07-12 08:07:00,
2013-07-12 03:13:00,59.3,57.3,30.03,SE,144,0.0,0.0,93,0.00,,,0.00,Wunderground v.1.15,2013-07-12 08:13:00,
2013-07-12 03:18:00,59.3,57.3,30.03,SE,144,0.0,0.0,93,0.00,,,0.00,Wunderground v.1.15,2013-07-12 08:18:00,
2013-07-12 03:24:00,59.2,57.2,30.02,SE,144,0.0,0.0,93,0.00,,,0.00,Wunderground v.1.15,2013-07-12 08:24:00,
2013-07-12 03:30:00,59.2,57.5,30.02,SE,144,0.0,0.0,94,0.00,,,0.00,Wunderground v.1.15,2013-07-12 08:30:00,
2013-07-12 03:36:00,59.0,57.0,30.00,SE,127,0.0,0.0,93,0.00,,,0.00,Wunderground v.1.15,2013-07-12 08:36:00,
2013-07-12 03:42:00,58.7,56.7,30.01,SE,127,0.0,0.0,93,0.00,,,0.00,Wunderground v.1.15,2013-07-12 08:42:00,
2013-07-12 03:48:00,58.9,57.2,30.01,SE,127,0.0,0.0,94,0.00,,,0.00,Wunderground v.1.15,2013-07-12 08:48:00,
2013-07-12 03:54:00,59.1,57.4,30.01,SE,127,0.0,0.0,94,0.00,,,0.00,Wunderground v.1.15,2013-07-12 08:54:00,
2013-07-12 03:59:00,59.1,57.1,30.01,SE,127,0.0,0.0,93,0.00,,,0.00,Wunderground v.1.15,2013-07-12 08:59:00,
2013-07-12 04:05:00,59.1,57.1,30.01,SE,127,0.0,0.0,93,0.00,,,0.00,Wunderground v.1.15,2013-07-12 09:05:00,
2013-07-12 04:11:00,59.0,57.0,30.02,SE,127,0.0,0.0,93,0.00,,,0.00,Wunderground v.1.15,2013-07-12 09:11:00,
2013-07-12 04:17:00,58.8,56.8,30.02,SE,127,0.0,0.0,93,0.00,,,0.00,Wunderground v.1.15,2013-07-12 09:17:00,
2013-07-12 04:23:00,58.7,57.0,30.02,SE,127,0.0,0.0,94,0.00,,,0.00,Wunderground v.1.15,2013-07-12 09:23:00,
2013-07-12 04:29:00,58.6,56.9,30.03,SE,127,0.0,0.0,94,0.00,,,0.00,Wunderground v.1.15,2013-07-12 09:29:00,
2013-07-12 04:35:00,58.5,56.8,30.03,SE,127,0.0,0.0,94,0.00,,,0.00,Wunderground v.1.15,2013-07-12 09:35:00,
2013-07-12 04:40:00,58.3,56.6,30.03,SE,127,0.0,0.0,94,0.00,,,0.00,Wunderground v.1.15,2013-07-12 09:40:00,
2013-07-12 04:46:00,58.2,56.5,30.03,SE,127,0.0,0.0,94,0.00,,,0.00,Wunderground v.1.15,2013-07-12 09:46:00,
2013-07-12 04:52:00,58.2,56.5,30.04,SE,127,0.0,0.0,94,0.00,,,0.00,Wunderground v.1.15,2013-07-12 09:52:00,
2013-07-12 04:58:00,58.2,56.5,30.04,SE,127,0.0,0.0,94,0.00,,,0.00,Wunderground v.1.15,2013-07-12 09:58:00,
2013-07-12 05:03:00,58.0,56.3,30.03,SE,127,0.0,0.0,94,0.00,,,0.00,Wunderground v.1.15,2013-07-12 10:03:00,
2013-07-12 05:09:00,58.0,56.3,30.03,SE,127,0.0,0.0,94,0.00,,,0.00,Wunderground v.1.15,2013-07-12 10:09:00,
2013-07-12 05:15:00,57.8,56.1,30.03,SE,127,0.0,0.0,94,0.00,,,0.00,Wunderground v.1.15,2013-07-12 10:15:00,
2013-07-12 05:21:00,57.8,56.4,30.03,SE,127,0.0,0.0,95,0.00,,,0.00,Wunderground v.1.15,2013-07-12 10:21:00,
2013-07-12 05:27:00,57.7,56.3,30.03,SE,127,0.0,0.0,95,0.00,,,0.00,Wunderground v.1.15,2013-07-12 10:27:00,
2013-07-12 05:33:00,57.6,56.2,30.04,SE,127,0.0,0.0,95,0.00,,,0.00,Wunderground v.1.15,2013-07-12 10:33:00,
2013-07-12 05:39:00,57.7,56.3,30.04,SE,127,0.0,0.0,95,0.00,,,0.00,Wunderground v.1.15,2013-07-12 10:39:00,
2013-07-12 05:45:00,58.0,56.6,30.04,SE,127,0.0,0.0,95,0.00,,,0.00,Wunderground v.1.15,2013-07-12 10:45:00,
2013-07-12 05:51:00,58.2,56.8,30.05,SE,127,0.0,0.0,95,0.00,,,0.00,Wunderground v.1.15,2013-07-12 10:51:00,
2013-07-12 05:56:00,58.3,56.9,30.05,SE,127,0.0,0.0,95,0.00,,,0.00,Wunderground v.1.15,2013-07-12 10:56:00,
2013-07-12 06:02:00,58.8,57.4,30.05,SE,127,0.0,0.0,95,0.00,,,0.00,Wunderground v.1.15,2013-07-12 11:02:00,
2013-07-12 06:08:00,59.1,58.0,30.05,SE,127,0.0,0.0,96,0.00,,,0.00,Wunderground v.1.15,2013-07-12 11:08:00,
2013-07-12 06:13:00,59.2,57.8,30.05,SE,127,0.0,0.0,95,0.00,,,0.00,Wunderground v.1.15,2013-07-12 11:13:00,
2013-07-12 06:18:00,59.4,58.0,30.05,SE,127,0.0,0.0,95,0.00,,,0.00,Wunderground v.1.15,2013-07-12 11:18:00,
2013-07-12 06:24:00,59.6,58.2,30.05,SE,127,0.0,0.0,95,0.00,,,0.00,Wunderground v.1.15,2013-07-12 11:24:00,
2013-07-12 06:30:00,59.8,58.4,30.05,SE,127,0.0,0.0,95,0.00,,,0.00,Wunderground v.1.15,2013-07-12 11:30:00,
2013-07-12 06:36:00,59.9,58.2,30.05,SE,127,0.0,0.0,94,0.00,,,0.00,Wunderground v.1.15,2013-07-12 11:36:00,
2013-07-12 06:42:00,60.2,58.5,30.05,SE,127,0.0,0.0,94,0.00,,,0.00,Wunderground v.1.15,2013-07-12 11:42:00,
2013-07-12 06:48:00,60.4,58.7,30.05,SE,134,0.0,0.0,94,0.00,,,0.00,Wunderground v.1.15,2013-07-12 11:48:00,
2013-07-12 06:54:00,60.6,58.9,30.05,SE,134,0.0,0.0,94,0.00,,,0.00,Wunderground v.1.15,2013-07-12 11:54:00,
2013-07-12 06:59:00,60.8,59.1,30.05,SE,134,0.0,0.0,94,0.00,,,0.00,Wunderground v.1.15,2013-07-12 11:59:00,
2013-07-12 07:05:00,61.0,59.3,30.05,SE,134,0.0,0.0,94,0.00,,,0.00,Wunderground v.1.15,2013-07-12 12:05:00,
2013-07-12 07:11:00,61.4,59.7,30.06,SE,140,0.0,0.0,94,0.00,,,0.00,Wunderground v.1.15,2013-07-12 12:11:00,
2013-07-12 07:17:00,61.8,60.1,30.06,SE,140,0.0,0.0,94,0.00,,,0.00,Wunderground v.1.15,2013-07-12 12:17:00,
2013-07-12 07:23:00,62.0,60.3,30.07,SE,140,0.0,0.0,94,0.00,,,0.00,Wunderground v.1.15,2013-07-12 12:23:00,
2013-07-12 07:28:00,62.4,60.3,30.06,SE,140,0.0,0.0,93,0.00,,,0.00,Wunderground v.1.15,2013-07-12 12:28:00,
2013-07-12 07:34:00,62.9,60.5,30.06,SE,140,0.0,0.0,92,0.00,,,0.00,Wunderground v.1.15,2013-07-12 12:34:00,
2013-07-12 07:40:00,63.6,61.2,30.06,SE,142,0.0,0.0,92,0.00,,,0.00,Wunderground v.1.15,2013-07-12 12:40:00,
2013-07-12 07:46:00,64.1,61.4,30.06,SSE,167,0.0,0.0,91,0.00,,,0.00,Wunderground v.1.15,2013-07-12 12:46:00,
2013-07-12 07:51:00,64.5,61.8,30.06,SSW,192,0.0,0.0,91,0.00,,,0.00,Wunderground v.1.15,2013-07-12 12:51:00,
2013-07-12 07:57:00,64.8,61.5,30.06,South,185,0.0,0.0,89,0.00,,,0.00,Wunderground v.1.15,2013-07-12 12:57:00,
2013-07-12 08:02:00,65.4,62.1,30.07,South,173,0.0,0.0,89,0.00,,,0.00,Wunderground v.1.15,2013-07-12 13:02:00,
2013-07-12 08:08:00,66.1,62.4,30.06,SSW,201,0.0,0.0,88,0.00,,,0.00,Wunderground v.1.15,2013-07-12 13:08:00,
2013-07-12 08:14:00,66.7,62.7,30.06,WSW,257,0.0,0.0,87,0.00,,,0.00,Wunderground v.1.15,2013-07-12 13:14:00,
2013-07-12 08:20:00,67.1,62.8,30.06,SW,225,0.0,0.0,86,0.00,,,0.00,Wunderground v.1.15,2013-07-12 13:20:00,
2013-07-12 08:26:00,67.8,62.8,30.06,South,178,0.0,0.0,84,0.00,,,0.00,Wunderground v.1.15,2013-07-12 13:26:00,
2013-07-12 08:31:00,68.5,62.8,30.06,WSW,240,0.0,0.0,82,0.00,,,0.00,Wunderground v.1.15,2013-07-12 13:31:00,
2013-07-12 08:37:00,69.4,64.0,30.06,South,189,0.0,0.0,83,0.00,,,0.00,Wunderground v.1.15,2013-07-12 13:37:00,
2013-07-12 08:43:00,70.1,63.3,30.06,WSW,252,0.0,0.0,79,0.00,,,0.00,Wunderground v.1.15,2013-07-12 13:43:00,
2013-07-12 08:49:00,70.6,63.4,30.06,SSW,212,0.0,0.0,78,0.00,,,0.00,Wunderground v.1.15,2013-07-12 13:49:00,
2013-07-12 08:55:00,71.0,62.7,30.07,SSW,209,0.0,0.0,75,0.00,,,0.00,Wunderground v.1.15,2013-07-12 13:55:00,
2013-07-12 09:01:00,71.5,63.5,30.07,SSW,209,0.0,0.0,76,0.00,,,0.00,Wunderground v.1.15,2013-07-12 14:01:00,
2013-07-12 09:06:00,71.7,63.7,30.07,SW,232,0.0,0.0,76,0.00,,,0.00,Wunderground v.1.15,2013-07-12 14:06:00,
2013-07-12 09:12:00,71.9,63.2,30.07,SW,229,0.0,0.0,74,0.00,,,0.00,Wunderground v.1.15,2013-07-12 14:12:00,
2013-07-12 09:18:00,71.9,62.8,30.07,South,185,0.0,0.0,73,0.00,,,0.00,Wunderground v.1.15,2013-07-12 14:18:00,
2013-07-12 09:23:00,72.1,62.6,30.07,SSW,197,0.0,0.0,72,0.00,,,0.00,Wunderground v.1.15,2013-07-12 14:23:00,
2013-07-12 09:29:00,72.0,62.1,30.06,SSW,200,0.0,0.0,71,0.00,,,0.00,Wunderground v.1.15,2013-07-12 14:29:00,
2013-07-12 09:35:00,72.5,63.0,30.06,West,269,0.0,0.0,72,0.00,,,0.00,Wunderground v.1.15,2013-07-12 14:35:00,
2013-07-12 09:41:00,72.8,63.2,30.06,SW,220,0.0,0.0,72,0.00,,,0.00,Wunderground v.1.15,2013-07-12 14:41:00,
2013-07-12 09:47:00,73.0,63.0,30.06,WSW,248,0.0,0.0,71,0.00,,,0.00,Wunderground v.1.15,2013-07-12 14:47:00,
2013-07-12 09:53:00,73.4,63.4,30.06,SW,214,0.0,0.0,71,0.00,,,0.00,Wunderground v.1.15,2013-07-12 14:53:00,
2013-07-12 09:59:00,73.8,63.0,30.06,SW,226,0.0,0.0,69,0.00,,,0.00,Wunderground v.1.15,2013-07-12 14:59:00,
2013-07-12 10:05:00,74.3,62.6,30.06,WSW,253,0.0,0.0,67,0.00,,,0.00,Wunderground v.1.15,2013-07-12 15:05:00,
2013-07-12 10:11:00,74.3,61.8,30.06,SSW,197,0.0,0.0,65,0.00,,,0.00,Wunderground v.1.15,2013-07-12 15:11:00,
2013-07-12 10:17:00,74.2,62.1,30.06,WSW,244,0.0,0.0,66,0.00,,,0.00,Wunderground v.1.15,2013-07-12 15:17:00,
2013-07-12 10:22:00,73.8,61.3,30.06,West,281,0.0,0.0,65,0.00,,,0.00,Wunderground v.1.15,2013-07-12 15:22:00,
2013-07-12 10:28:00,74.0,62.8,30.06,NW,316,0.0,0.0,68,0.00,,,0.00,Wunderground v.1.15,2013-07-12 15:28:00,
2013-07-12 10:34:00,74.7,62.1,30.06,West,268,0.0,0.0,65,0.00,,,0.00,Wunderground v.1.15,2013-07-12 15:34:00,
2013-07-12 10:40:00,74.9,62.3,30.06,South,180,0.0,0.0,65,0.00,,,0.00,Wunderground v.1.15,2013-07-12 15:40:00,
2013-07-12 10:46:00,75.3,63.2,30.06,West,273,0.0,0.0,66,0.00,,,0.00,Wunderground v.1.15,2013-07-12 15:46:00,
2013-07-12 10:52:00,75.6,63.4,30.05,NNW,338,0.0,0.0,66,0.00,,,0.00,Wunderground v.1.15,2013-07-12 15:52:00,
2013-07-12 10:58:00,75.9,62.8,30.05,South,184,0.0,0.0,64,0.00,,,0.00,Wunderground v.1.15,2013-07-12 15:58:00,
2013-07-12 11:04:00,76.0,63.4,30.05,SSW,200,0.0,0.0,65,0.00,,,0.00,Wunderground v.1.15,2013-07-12 16:04:00,
2013-07-12 11:10:00,76.0,62.5,30.05,West,262,0.0,0.0,63,0.00,,,0.00,Wunderground v.1.15,2013-07-12 16:10:00,
2013-07-12 11:16:00,76.1,62.1,30.05,East,86,0.0,0.0,62,0.00,,,0.00,Wunderground v.1.15,2013-07-12 16:16:00,
2013-07-12 11:22:00,76.4,61.5,30.05,SSE,167,0.0,0.0,60,0.00,,,0.00,Wunderground v.1.15,2013-07-12 16:22:00,
2013-07-12 11:28:00,76.4,61.5,30.05,NNW,348,0.0,0.0,60,0.00,,,0.00,Wunderground v.1.15,2013-07-12 16:28:00,
2013-07-12 11:34:00,76.2,60.8,30.05,East,98,0.0,0.0,59,0.00,,,0.00,Wunderground v.1.15,2013-07-12 16:34:00,
2013-07-12 11:40:00,76.2,61.3,30.05,SW,230,0.0,0.0,60,0.00,,,0.00,Wunderground v.1.15,2013-07-12 16:40:00,
2013-07-12 11:46:00,76.4,61.0,30.05,South,186,0.0,0.0,59,0.00,,,0.00,Wunderground v.1.15,2013-07-12 16:46:00,
2013-07-12 11:53:00,76.5,60.6,30.05,SSE,165,0.0,0.0,58,0.00,,,0.00,Wunderground v.1.15,2013-07-12 16:53:00,
2013-07-12 12:00:00,76.4,60.5,30.05,South,190,0.0,0.0,58,0.00,,,0.00,Wunderground v.1.15,2013-07-12 17:00:00,
2013-07-12 12:06:00,76.7,60.3,30.05,ESE,115,0.0,0.0,57,0.00,,,0.00,Wunderground v.1.15,2013-07-12 17:06:00,
2013-07-12 12:11:00,77.0,61.6,30.05,West,277,0.0,0.0,59,0.00,,,0.00,Wunderground v.1.15,2013-07-12 17:11:00,
2013-07-12 12:16:00,77.2,60.8,30.05,West,280,0.0,0.0,57,0.00,,,0.00,Wunderground v.1.15,2013-07-12 17:16:00,
2013-07-12 12:22:00,77.4,62.4,30.04,South,171,0.0,0.0,60,0.00,,,0.00,Wunderground v.1.15,2013-07-12 17:22:00,
2013-07-12 12:30:00,77.4,62.9,30.03,North,355,0.0,0.0,61,0.00,,,0.00,Wunderground v.1.15,2013-07-12 17:30:00,
2013-07-12 12:37:00,77.7,60.8,30.03,NE,36,0.0,0.0,56,0.00,,,0.00,Wunderground v.1.15,2013-07-12 17:37:00,
2013-07-12 12:43:00,77.8,61.8,30.03,South,177,0.0,0.0,58,0.00,,,0.00,Wunderground v.1.15,2013-07-12 17:43:00,
2013-07-12 12:49:00,77.5,63.0,30.03,SW,227,0.0,0.0,61,0.00,,,0.00,Wunderground v.1.15,2013-07-12 17:49:00,
2013-07-12 12:54:00,77.7,61.7,30.03,SE,130,0.0,0.0,58,0.00,,,0.00,Wunderground v.1.15,2013-07-12 17:54:00,
2013-07-12 13:00:00,78.0,63.0,30.03,WSW,245,0.0,0.0,60,0.00,,,0.00,Wunderground v.1.15,2013-07-12 18:00:00,
2013-07-12 13:06:00,77.7,60.8,30.03,SSE,167,0.0,0.0,56,0.00,,,0.00,Wunderground v.1.15,2013-07-12 18:06:00,
2013-07-12 13:12:00,77.8,60.8,30.03,SE,136,0.0,0.0,56,0.00,,,0.00,Wunderground v.1.15,2013-07-12 18:12:00,
2013-07-12 13:18:00,77.8,60.8,30.03,SSW,213,0.0,0.0,56,0.00,,,0.00,Wunderground v.1.15,2013-07-12 18:18:00,
2013-07-12 13:24:00,77.8,60.8,30.03,SW,216,0.0,0.0,56,0.00,,,0.00,Wunderground v.1.15,2013-07-12 18:24:00,
2013-07-12 13:29:00,77.9,61.4,30.03,SSW,200,0.0,0.0,57,0.00,,,0.00,Wunderground v.1.15,2013-07-12 18:29:00,
2013-07-12 13:34:00,78.4,60.4,30.03,ESE,119,0.0,0.0,54,0.00,,,0.00,Wunderground v.1.15,2013-07-12 18:34:00,
2013-07-12 13:40:00,78.5,59.9,30.03,SW,232,0.0,0.0,53,0.00,,,0.00,Wunderground v.1.15,2013-07-12 18:40:00,
2013-07-12 13:46:00,78.8,62.8,30.03,SE,136,0.0,0.0,58,0.00,,,0.00,Wunderground v.1.15,2013-07-12 18:46:00,
2013-07-12 13:51:00,79.2,61.6,30.03,ENE,69,0.0,0.0,55,0.00,,,0.00,Wunderground v.1.15,2013-07-12 18:51:00,
2013-07-12 13:56:00,79.1,62.6,30.03,North,9,0.0,0.0,57,0.00,,,0.00,Wunderground v.1.15,2013-07-12 18:56:00,
2013-07-12 14:02:00,79.3,63.7,30.03,SSE,161,0.0,0.0,59,0.00,,,0.00,Wunderground v.1.15,2013-07-12 19:02:00,
2013-07-12 14:08:00,79.7,63.1,30.02,WSW,257,0.0,0.0,57,0.00,,,0.00,Wunderground v.1.15,2013-07-12 19:08:00,
2013-07-12 14:14:00,79.6,62.0,30.03,SW,233,0.0,0.0,55,0.00,,,0.00,Wunderground v.1.15,2013-07-12 19:14:00,
2013-07-12 14:19:00,79.7,62.1,30.03,SE,128,0.0,0.0,55,0.00,,,0.00,Wunderground v.1.15,2013-07-12 19:19:00,
2013-07-12 14:25:00,79.6,62.0,30.03,South,180,0.0,0.0,55,0.00,,,0.00,Wunderground v.1.15,2013-07-12 19:25:00,
2013-07-12 14:31:00,79.7,63.6,30.02,WSW,251,0.0,0.0,58,0.00,,,0.00,Wunderground v.1.15,2013-07-12 19:31:00,
2013-07-12 14:37:00,79.7,63.1,30.02,SSE,167,0.0,0.0,57,0.00,,,0.00,Wunderground v.1.15,2013-07-12 19:37:00,
2013-07-12 14:43:00,79.5,62.9,30.02,South,176,0.0,0.0,57,0.00,,,0.00,Wunderground v.1.15,2013-07-12 19:43:00,
2013-07-12 14:49:00,79.4,61.3,30.01,SE,138,0.0,0.0,54,0.00,,,0.00,Wunderground v.1.15,2013-07-12 19:49:00,
2013-07-12 14:54:00,79.4,61.3,30.01,SW,216,0.0,0.0,54,0.00,,,0.00,Wunderground v.1.15,2013-07-12 19:54:00,
2013-07-12 15:00:00,79.4,60.8,30.02,SSE,149,0.0,0.0,53,0.00,,,0.00,Wunderground v.1.15,2013-07-12 20:00:00,
2013-07-12 15:05:00,79.4,61.3,30.02,West,260,0.0,0.0,54,0.00,,,0.00,Wunderground v.1.15,2013-07-12 20:05:00,
2013-07-12 15:10:00,79.5,60.9,30.02,ESE,111,0.0,0.0,53,0.00,,,0.00,Wunderground v.1.15,2013-07-12 20:10:00,
2013-07-12 15:17:00,79.7,61.1,30.01,ENE,76,0.0,0.0,53,0.00,,,0.00,Wunderground v.1.15,2013-07-12 20:17:00,
2013-07-12 15:22:00,80.1,62.5,30.01,SE,130,0.0,0.0,55,0.00,,,0.00,Wunderground v.1.15,2013-07-12 20:22:00,
2013-07-12 15:27:00,80.1,64.5,30.01,SSE,167,0.0,0.0,59,0.00,,,0.00,Wunderground v.1.15,2013-07-12 20:27:00,
2013-07-12 15:33:00,80.1,60.9,30.01,NW,315,0.0,0.0,52,0.00,,,0.00,Wunderground v.1.15,2013-07-12 20:33:00,
2013-07-12 15:38:00,80.2,61.0,30.01,East,94,0.0,0.0,52,0.00,,,0.00,Wunderground v.1.15,2013-07-12 20:38:00,
2013-07-12 15:44:00,80.3,60.5,30.01,WNW,285,0.0,0.0,51,0.00,,,0.00,Wunderground v.1.15,2013-07-12 20:44:00,
2013-07-12 15:50:00,80.3,61.1,30.01,ESE,119,0.0,0.0,52,0.00,,,0.00,Wunderground v.1.15,2013-07-12 20:50:00,
2013-07-12 15:56:00,80.5,61.8,30.01,NE,47,0.0,0.0,53,0.00,,,0.00,Wunderground v.1.15,2013-07-12 20:56:00,
2013-07-12 16:02:00,80.6,60.2,30.01,ESE,118,0.0,0.0,50,0.00,,,0.00,Wunderground v.1.15,2013-07-12 21:02:00,
2013-07-12 16:08:00,80.4,60.6,30.01,ESE,112,0.0,0.0,51,0.00,,,0.00,Wunderground v.1.15,2013-07-12 21:08:00,
2013-07-12 16:14:00,80.3,59.4,30.01,North,355,0.0,0.0,49,0.00,,,0.00,Wunderground v.1.15,2013-07-12 21:14:00,
2013-07-12 16:21:00,80.5,59.6,30.01,West,269,0.0,0.0,49,0.00,,,0.00,Wunderground v.1.15,2013-07-12 21:21:00,
2013-07-12 16:27:00,80.4,61.7,30.01,SW,234,0.0,0.0,53,0.00,,,0.00,Wunderground v.1.15,2013-07-12 21:27:00,
2013-07-12 16:33:00,80.5,60.7,30.00,WSW,244,0.0,0.0,51,0.00,,,0.00,Wunderground v.1.15,2013-07-12 21:33:00,
2013-07-12 16:38:00,80.4,60.6,30.00,South,186,0.0,0.0,51,0.00,,,0.00,Wunderground v.1.15,2013-07-12 21:38:00,
2013-07-12 16:44:00,80.2,60.4,30.00,East,94,0.0,0.0,51,0.00,,,0.00,Wunderground v.1.15,2013-07-12 21:44:00,
2013-07-12 16:50:00,79.6,58.8,30.00,SW,215,0.0,0.0,49,0.00,,,0.00,Wunderground v.1.15,2013-07-12 21:50:00,
2013-07-12 16:56:00,79.8,61.1,30.00,SSE,158,0.0,0.0,53,0.00,,,0.00,Wunderground v.1.15,2013-07-12 21:56:00,
2013-07-12 17:03:00,80.3,61.1,30.00,SSW,200,0.0,0.0,52,0.00,,,0.00,Wunderground v.1.15,2013-07-12 22:03:00,
2013-07-12 17:09:00,80.5,59.6,30.00,SE,146,0.0,0.0,49,0.00,,,0.00,Wunderground v.1.15,2013-07-12 22:09:00,
2013-07-12 17:14:00,80.3,58.8,30.00,East,86,0.0,0.0,48,0.00,,,0.00,Wunderground v.1.15,2013-07-12 22:14:00,
2013-07-12 17:20:00,80.2,58.7,30.00,SSW,204,0.0,0.0,48,0.00,,,0.00,Wunderground v.1.15,2013-07-12 22:20:00,
2013-07-12 17:25:00,80.1,59.2,29.99,ENE,75,0.0,0.0,49,0.00,,,0.00,Wunderground v.1.15,2013-07-12 22:25:00,
2013-07-12 17:31:00,80.3,58.8,29.99,SSW,208,0.0,0.0,48,0.00,,,0.00,Wunderground v.1.15,2013-07-12 22:31:00,
2013-07-12 17:38:00,80.1,59.2,29.99,WNW,290,0.0,0.0,49,0.00,,,0.00,Wunderground v.1.15,2013-07-12 22:38:00,
2013-07-12 17:43:00,80.2,61.5,29.99,WSW,246,0.0,0.0,53,0.00,,,0.00,Wunderground v.1.15,2013-07-12 22:43:00,
2013-07-12 17:49:00,80.2,59.3,29.99,SSE,147,0.0,0.0,49,0.00,,,0.00,Wunderground v.1.15,2013-07-12 22:49:00,
2013-07-12 17:56:00,80.2,60.4,29.99,SE,135,0.0,0.0,51,0.00,,,0.00,Wunderground v.1.15,2013-07-12 22:56:00,
2013-07-12 18:03:00,80.1,59.8,29.99,North,9,0.0,0.0,50,0.00,,,0.00,Wunderground v.1.15,2013-07-12 23:03:00,
2013-07-12 18:08:00,79.8,59.5,29.99,SE,133,0.0,0.0,50,0.00,,,0.00,Wunderground v.1.15,2013-07-12 23:08:00,
2013-07-12 18:14:00,79.6,59.9,29.99,SSW,196,0.0,0.0,51,0.00,,,0.00,Wunderground v.1.15,2013-07-12 23:14:00,
2013-07-12 18:19:00,79.7,60.0,29.99,South,175,0.0,0.0,51,0.00,,,0.00,Wunderground v.1.15,2013-07-12 23:19:00,
2013-07-12 18:24:00,79.8,60.6,29.99,SSW,205,0.0,0.0,52,0.00,,,0.00,Wunderground v.1.15,2013-07-12 23:24:00,
2013-07-12 18:31:00,79.9,60.7,29.99,NE,48,0.0,0.0,52,0.00,,,0.00,Wunderground v.1.15,2013-07-12 23:31:00,
2013-07-12 18:37:00,79.8,60.1,29.98,SSW,192,0.0,0.0,51,0.00,,,0.00,Wunderground v.1.15,2013-07-12 23:37:00,
2013-07-12 18:43:00,79.6,59.9,29.99,SSE,155,0.0,0.0,51,0.00,,,0.00,Wunderground v.1.15,2013-07-12 23:43:00,
2013-07-12 18:48:00,79.5,59.8,29.99,SSE,165,0.0,0.0,51,0.00,,,0.00,Wunderground v.1.15,2013-07-12 23:48:00,
2013-07-12 18:54:00,79.6,59.3,29.99,ESE,121,0.0,0.0,50,0.00,,,0.00,Wunderground v.1.15,2013-07-12 23:54:00,
2013-07-12 18:59:00,79.5,60.3,29.99,West,275,0.0,0.0,52,0.00,,,0.00,Wunderground v.1.15,2013-07-12 23:59:00,
2013-07-12 19:04:00,79.4,59.7,29.99,SE,137,0.0,0.0,51,0.00,,,0.00,Wunderground v.1.15,2013-07-13 00:04:00,
2013-07-12 19:10:00,79.2,59.5,29.99,South,172,0.0,0.0,51,0.00,,,0.00,Wunderground v.1.15,2013-07-13 00:10:00,
2013-07-12 19:16:00,78.9,59.8,29.99,ESE,119,0.0,0.0,52,0.00,,,0.00,Wunderground v.1.15,2013-07-13 00:16:00,
2013-07-12 19:22:00,78.7,61.2,29.99,SSE,165,0.0,0.0,55,0.00,,,0.00,Wunderground v.1.15,2013-07-13 00:22:00,
2013-07-12 19:28:00,78.0,61.0,29.99,SSE,151,0.0,0.0,56,0.00,,,0.00,Wunderground v.1.15,2013-07-13 00:28:00,
2013-07-12 19:33:00,77.9,60.4,29.99,East,88,0.0,0.0,55,0.00,,,0.00,Wunderground v.1.15,2013-07-13 00:33:00,
2013-07-12 19:39:00,77.6,60.7,29.99,SSE,163,0.0,0.0,56,0.00,,,0.00,Wunderground v.1.15,2013-07-13 00:39:00,
2013-07-12 19:44:00,77.3,60.9,29.99,South,186,0.0,0.0,57,0.00,,,0.00,Wunderground v.1.15,2013-07-13 00:44:00,
2013-07-12 19:49:00,76.9,61.0,29.99,SSE,155,0.0,0.0,58,0.00,,,0.00,Wunderground v.1.15,2013-07-13 00:49:00,
2013-07-12 19:54:00,76.5,61.1,29.99,SSE,163,0.0,0.0,59,0.00,,,0.00,Wunderground v.1.15,2013-07-13 00:54:00,
2013-07-12 20:00:00,76.2,60.8,29.99,South,191,0.0,0.0,59,0.00,,,0.00,Wunderground v.1.15,2013-07-13 01:00:00,
2013-07-12 20:06:00,75.9,61.0,29.99,South,187,0.0,0.0,60,0.00,,,0.00,Wunderground v.1.15,2013-07-13 01:06:00,
2013-07-12 20:12:00,75.6,61.7,29.99,SSE,168,0.0,0.0,62,0.00,,,0.00,Wunderground v.1.15,2013-07-13 01:12:00,
2013-07-12 20:17:00,75.2,63.1,29.98,SSE,161,0.0,0.0,66,0.00,,,0.00,Wunderground v.1.15,2013-07-13 01:17:00,
2013-07-12 20:23:00,74.6,64.2,29.98,SE,140,0.0,0.0,70,0.00,,,0.00,Wunderground v.1.15,2013-07-13 01:23:00,
2013-07-12 20:29:00,73.9,62.7,29.98,SE,140,0.0,0.0,68,0.00,,,0.00,Wunderground v.1.15,2013-07-13 01:29:00,
2013-07-12 20:35:00,73.2,61.6,29.98,SE,140,0.0,0.0,67,0.00,,,0.00,Wunderground v.1.15,2013-07-13 01:35:00,
2013-07-12 20:41:00,72.6,63.1,29.98,SSE,165,0.0,0.0,72,0.00,,,0.00,Wunderground v.1.15,2013-07-13 01:41:00,
2013-07-12 20:46:00,71.9,61.2,29.98,SE,138,0.0,0.0,69,0.00,,,0.00,Wunderground v.1.15,2013-07-13 01:46:00,
2013-07-12 20:52:00,71.3,61.4,29.98,SE,138,0.0,0.0,71,0.00,,,0.00,Wunderground v.1.15,2013-07-13 01:52:00,
2013-07-12 20:58:00,71.0,60.3,29.98,SSE,148,0.0,0.0,69,0.00,,,0.00,Wunderground v.1.15,2013-07-13 01:58:00,
2013-07-12 21:04:00,70.6,60.3,29.98,SSE,150,0.0,0.0,70,0.00,,,0.00,Wunderground v.1.15,2013-07-13 02:04:00,
2013-07-12 21:09:00,70.3,59.6,29.98,SSE,161,0.0,0.0,69,0.00,,,0.00,Wunderground v.1.15,2013-07-13 02:09:00,
2013-07-12 21:14:00,70.1,59.9,29.98,SE,144,0.0,0.0,70,0.00,,,0.00,Wunderground v.1.15,2013-07-13 02:14:00,
2013-07-12 21:19:00,69.9,59.3,29.97,SSE,168,0.0,0.0,69,0.00,,,0.00,Wunderground v.1.15,2013-07-13 02:19:00,
2013-07-12 21:25:00,69.7,59.9,29.98,SE,128,0.0,0.0,71,0.00,,,0.00,Wunderground v.1.15,2013-07-13 02:25:00,
2013-07-12 21:31:00,69.3,59.1,29.97,SSE,149,0.0,0.0,70,0.00,,,0.00,Wunderground v.1.15,2013-07-13 02:31:00,
2013-07-12 21:37:00,69.0,59.2,29.97,SE,130,0.0,0.0,71,0.00,,,0.00,Wunderground v.1.15,2013-07-13 02:37:00,
2013-07-12 21:43:00,68.8,59.4,29.97,SSE,150,0.0,0.0,72,0.00,,,0.00,Wunderground v.1.15,2013-07-13 02:43:00,
2013-07-12 21:49:00,68.5,59.1,29.98,SSE,148,0.0,0.0,72,0.00,,,0.00,Wunderground v.1.15,2013-07-13 02:49:00,
2013-07-12 21:55:00,68.2,58.4,29.97,SSW,195,0.0,0.0,71,0.00,,,0.00,Wunderground v.1.15,2013-07-13 02:55:00,
2013-07-12 22:01:00,68.2,59.2,29.98,SSE,160,0.0,0.0,73,0.00,,,0.00,Wunderground v.1.15,2013-07-13 03:01:00,
2013-07-12 22:06:00,68.0,59.4,29.98,SSE,160,0.0,0.0,74,0.00,,,0.00,Wunderground v.1.15,2013-07-13 03:06:00,
2013-07-12 22:13:00,67.7,58.7,29.98,SSE,148,0.0,0.0,73,0.00,,,0.00,Wunderground v.1.15,2013-07-13 03:13:00,
2013-07-12 22:18:00,67.5,58.9,29.98,SSE,149,0.0,0.0,74,0.00,,,0.00,Wunderground v.1.15,2013-07-13 03:18:00,
2013-07-12 22:23:00,67.4,59.2,29.98,ESE,122,0.0,0.0,75,0.00,,,0.00,Wunderground v.1.15,2013-07-13 03:23:00,
2013-07-12 22:29:00,67.3,58.7,29.98,SE,140,0.0,0.0,74,0.00,,,0.00,Wunderground v.1.15,2013-07-13 03:29:00,
2013-07-12 22:35:00,67.2,58.6,29.97,SE,126,0.0,0.0,74,0.00,,,0.00,Wunderground v.1.15,2013-07-13 03:35:00,
2013-07-12 22:41:00,67.2,58.6,29.97,South,179,0.0,0.0,74,0.00,,,0.00,Wunderground v.1.15,2013-07-13 03:41:00,
2013-07-12 22:47:00,67.0,58.4,29.97,SW,231,0.0,0.0,74,0.00,,,0.00,Wunderground v.1.15,2013-07-13 03:47:00,
2013-07-12 22:53:00,67.0,58.4,29.97,ESE,102,0.0,0.0,74,0.00,,,0.00,Wunderground v.1.15,2013-07-13 03:53:00,
2013-07-12 22:59:00,66.7,58.5,29.97,SSE,152,0.0,0.0,75,0.00,,,0.00,Wunderground v.1.15,2013-07-13 03:59:00,
2013-07-12 23:01:00,66.7,58.5,29.97,SSE,152,0.0,0.0,75,0.00,,,0.00,Wunderground v.1.15,2013-07-13 04:01:00,
2013-07-12 23:02:00,66.6,58.4,29.98,SSE,152,0.0,0.0,75,0.00,,,0.00,Wunderground v.1.15,2013-07-13 04:02:00,
2013-07-12 23:05:00,66.5,58.3,29.98,SSE,158,0.0,0.0,75,0.00,,,0.00,Wunderground v.1.15,2013-07-13 04:05:00,
2013-07-12 23:09:00,66.4,58.2,29.98,SSE,158,0.0,0.0,75,0.00,,,0.00,Wunderground v.1.15,2013-07-13 04:09:00,
2013-07-12 23:14:00,66.1,58.7,29.98,SSE,158,0.0,0.0,77,0.00,,,0.00,Wunderground v.1.15,2013-07-13 04:14:00,
2013-07-12 23:18:00,65.9,58.8,29.98,ENE,67,0.0,0.0,78,0.00,,,0.00,Wunderground v.1.15,2013-07-13 04:18:00,
2013-07-12 23:24:00,65.5,59.2,29.99,ENE,67,0.0,0.0,80,0.00,,,0.00,Wunderground v.1.15,2013-07-13 04:24:00,
2013-07-12 23:30:00,65.0,58.7,29.98,ENE,67,0.0,0.0,80,0.00,,,0.00,Wunderground v.1.15,2013-07-13 04:30:00,
2013-07-12 23:36:00,64.7,59.1,29.99,ENE,67,0.0,0.0,82,0.00,,,0.00,Wunderground v.1.15,2013-07-13 04:36:00,
2013-07-12 23:41:00,64.5,59.2,29.99,ENE,67,0.0,0.0,83,0.00,,,0.00,Wunderground v.1.15,2013-07-13 04:41:00,
2013-07-12 23:47:00,64.1,58.5,29.99,ENE,67,0.0,0.0,82,0.00,,,0.00,Wunderground v.1.15,2013-07-13 04:47:00,
2013-07-12 23:53:00,63.8,57.9,29.99,ENE,67,0.0,0.0,81,0.00,,,0.00,Wunderground v.1.15,2013-07-13 04:53:00,
2013-07-12 23:59:00,63.6,58.0,29.99,ENE,67,0.0,0.0,82,0.00,,,0.00,Wunderground v.1.15,2013-07-13 04:59:00,